This is the latest recevied weather packets stored in our database for station/object DL9GRB-13. If no packets are shown the sender has not sent any weather packets the latest 10 day(s).
| Time | Temp. | Humidity | Pressure | Rain* | Wind** | Luminosity | Snow |
|---|---|---|---|---|---|---|---|
| 1777963928 | 9.44° C | 95% | 1010.5 hPa | 0.51 mm | - | 68 W/m² | - |
| 1777963748 | 9.44° C | 95% | 1010.3 hPa | 0.51 mm | - | 73 W/m² | - |
| 1777963568 | 9.44° C | 95% | 1010.2 hPa | 0 mm | - | 75 W/m² | - |
| 1777963388 | 9.44° C | 95% | 1010.4 hPa | 0 mm | - | 74 W/m² | - |
| 1777963208 | 9.44° C | 95% | 1010.3 hPa | 0 mm | - | 54 W/m² | - |
| 1777963028 | 9.44° C | 95% | 1010.3 hPa | 0.51 mm | - | 40 W/m² | - |
| 1777962848 | 9.44° C | 95% | 1010.3 hPa | 0.51 mm | - | 33 W/m² | - |
| 1777962668 | 9.44° C | 95% | 1010.5 hPa | 0.51 mm | - | 45 W/m² | - |
| 1777962488 | 9.44° C | 95% | 1010.3 hPa | 0.51 mm | - | 40 W/m² | - |
| 1777962308 | 9.44° C | 95% | 1010.3 hPa | 0 mm | - | 34 W/m² | - |
| 1777962128 | 9.44° C | 95% | 1010.3 hPa | 0 mm | - | 35 W/m² | - |
| 1777961948 | 9.44° C | 95% | 1010.4 hPa | 0 mm | - | 41 W/m² | - |
| 1777961768 | 9.44° C | 95% | 1010.4 hPa | 0 mm | - | 48 W/m² | - |
| 1777961588 | 9.44° C | 95% | 1010.5 hPa | 0 mm | - | 55 W/m² | - |
| 1777961408 | 9.44° C | 95% | 1010.4 hPa | 0 mm | - | 54 W/m² | - |
| 1777961228 | 9.44° C | 95% | 1010.4 hPa | 0 mm | - | 44 W/m² | - |
| 1777961048 | 9.44° C | 95% | 1010.3 hPa | 0 mm | - | 37 W/m² | - |
| 1777960688 | 9.44° C | 95% | 1010.3 hPa | 0 mm | - | 34 W/m² | - |
| 1777960508 | 9.44° C | 95% | 1010.3 hPa | 0.51 mm | - | 31 W/m² | - |
| 1777960328 | 9.44° C | 95% | 1010.2 hPa | 0.51 mm | - | 26 W/m² | - |
| 1777960148 | 9.44° C | 95% | 1010.4 hPa | 0.51 mm | - | 21 W/m² | - |
| 1777959968 | 9.44° C | 95% | 1010.4 hPa | 0 mm | - | 21 W/m² | - |
| 1777959788 | 9.44° C | 95% | 1010.5 hPa | 0 mm | - | 22 W/m² | - |
| 1777959608 | 9.44° C | 95% | 1010.4 hPa | 0 mm | - | 21 W/m² | - |
| 1777959428 | 9.44° C | 95% | 1010.5 hPa | 0 mm | - | 20 W/m² | - |
* Rain latest hour (hover to see other rain measurements)
** Current wind speed in m/s (hover to see current wind gust speed)